When you browse on this site, cookies collect data to enhance your experience and personalize the content and advertising you see.
Visit our Privacy Policy to learn more. By continuing to use the site, you agree to this use of cookies and data.
  • In Hungary
  • List of Countries
  • For 7 days
  • Water Temperature
  • Weather Map
  • News
  • Weather Widgets
  • user-avatar
    Login

    Hourly Weather El Espino

    Today, 10 December, Tuesday

    Time Temperature Precipitation Wind Pressure Humidity
    00:00 +7°C° 0 mm 1 mps 507 mmHg 92%
    01:00 +6°C° 0 mm 1 mps 507 mmHg 90%
    02:00 +6°C° 0 mm 1 mps 506 mmHg 88%
    03:00 +5°C° 0 mm 1 mps 506 mmHg 87%
    04:00 +5°C° 0 mm 1 mps 506 mmHg 86%
    05:00 +6°C° 0 mm 1 mps 507 mmHg 84%
    06:00 +7°C° 0 mm 1 mps 508 mmHg 81%
    07:00 +9°C° 0 mm 1 mps 510 mmHg 79%
    08:00 +11°C° 0 mm 1 mps 511 mmHg 75%
    09:00 +12°C° 0 mm 1 mps 512 mmHg 70%
    10:00 +14°C° 0 mm 2 mps 513 mmHg 66%
    11:00 +14°C° 0.2 mm 1 mps 512 mmHg 69%
    12:00 +13°C° 0.2 mm 1 mps 511 mmHg 72%
    13:00 +13°C° 0.2 mm 1 mps 511 mmHg 75%
    14:00 +13°C° 0.3 mm 1 mps 510 mmHg 79%
    15:00 +12°C° 0.3 mm 1 mps 509 mmHg 82%
    16:00 +12°C° 0.3 mm 1 mps 509 mmHg 86%
    17:00 +11°C° 0.4 mm 1 mps 509 mmHg 89%
    18:00 +10°C° 0.4 mm 1 mps 509 mmHg 92%
    19:00 +9°C° 0.4 mm 1 mps 509 mmHg 96%
    20:00 +9°C° 0.3 mm 1 mps 509 mmHg 95%
    21:00 +9°C° 0.3 mm 1 mps 509 mmHg 94%
    22:00 +8°C° 0.3 mm 1 mps 509 mmHg 94%
    23:00 +8°C° 0.3 mm 1 mps 509 mmHg 93%

    Tomorrow, 11 December, Wednesday

    Time Temperature Precipitation Wind Pressure Humidity
    00:00 +8°C° 0.3 mm 1 mps 508 mmHg 92%
    01:00 +7°C° 0.3 mm 1 mps 508 mmHg 91%
    02:00 +7°C° 0 mm 1 mps 507 mmHg 90%
    03:00 +7°C° 0 mm 1 mps 507 mmHg 89%
    04:00 +6°C° 0 mm 1 mps 507 mmHg 88%
    05:00 +7°C° 0 mm 1 mps 507 mmHg 87%
    06:00 +8°C° 0 mm 1 mps 508 mmHg 85%
    07:00 +9°C° 0 mm 1 mps 509 mmHg 83%
    08:00 +10°C° 0 mm 1 mps 510 mmHg 77%
    09:00 +12°C° 0 mm 1 mps 512 mmHg 71%
    10:00 +14°C° 0 mm 1 mps 513 mmHg 65%
    11:00 +13°C° 0.2 mm 1 mps 512 mmHg 69%
    12:00 +13°C° 0.2 mm 1 mps 511 mmHg 73%
    13:00 +13°C° 0.2 mm 1 mps 511 mmHg 77%
    14:00 +13°C° 0.6 mm 1 mps 510 mmHg 80%
    15:00 +12°C° 0.6 mm 1 mps 509 mmHg 84%
    16:00 +11°C° 0.6 mm 1 mps 509 mmHg 88%
    17:00 +10°C° 0.2 mm 1 mps 508 mmHg 91%
    18:00 +9°C° 0.2 mm 1 mps 508 mmHg 93%
    19:00 +8°C° 0.2 mm 1 mps 507 mmHg 96%
    20:00 +7°C° 0 mm 0 mps 507 mmHg 94%
    21:00 +6°C° 0 mm 0 mps 507 mmHg 93%
    22:00 +5°C° 0 mm 0 mps 507 mmHg 91%
    23:00 +5°C° 0 mm 0 mps 507 mmHg 90%

    Day after tomorrow, 12 December, Thursday

    Time Temperature Precipitation Wind Pressure Humidity
    00:00 +5°C° 0 mm 0 mps 507 mmHg 90%
    01:00 +6°C° 0 mm 1 mps 506 mmHg 89%
    02:00 +6°C° 0 mm 1 mps 506 mmHg 89%
    03:00 +6°C° 0 mm 1 mps 506 mmHg 88%
    04:00 +5°C° 0 mm 1 mps 506 mmHg 88%
    05:00 +6°C° 0 mm 1 mps 506 mmHg 87%
    06:00 +7°C° 0 mm 1 mps 507 mmHg 85%
    07:00 +8°C° 0 mm 1 mps 508 mmHg 84%
    08:00 +10°C° 0 mm 1 mps 510 mmHg 79%
    09:00 +11°C° 0 mm 1 mps 511 mmHg 74%
    10:00 +13°C° 0 mm 1 mps 512 mmHg 70%
    11:00 +13°C° 0.2 mm 1 mps 511 mmHg 73%
    12:00 +13°C° 0.2 mm 1 mps 511 mmHg 76%
    13:00 +13°C° 0.2 mm 1 mps 510 mmHg 79%
    14:00 +12°C° 0.6 mm 1 mps 509 mmHg 82%
    15:00 +12°C° 0.6 mm 1 mps 509 mmHg 85%
    16:00 +11°C° 0.6 mm 1 mps 508 mmHg 88%
    17:00 +10°C° 0.2 mm 1 mps 508 mmHg 91%
    18:00 +9°C° 0.2 mm 1 mps 507 mmHg 94%
    19:00 +7°C° 0.2 mm 0 mps 507 mmHg 97%
    20:00 +7°C° 0.1 mm 0 mps 507 mmHg 97%
    21:00 +7°C° 0.1 mm 0 mps 508 mmHg 97%
    22:00 +7°C° 0.1 mm 0 mps 508 mmHg 96%
    23:00 +6°C° 0 mm 0 mps 507 mmHg 96%

    13 December, Friday

    Time Temperature Precipitation Wind Pressure Humidity
    00:00 +6°C° 0 mm 0 mps 507 mmHg 95%
    01:00 +5°C° 0 mm 0 mps 506 mmHg 94%
    02:00 +5°C° 0 mm 0 mps 506 mmHg 94%
    03:00 +5°C° 0 mm 0 mps 506 mmHg 94%
    04:00 +5°C° 0 mm 0 mps 506 mmHg 94%
    05:00 +6°C° 0 mm 0 mps 507 mmHg 92%
    06:00 +6°C° 0 mm 0 mps 507 mmHg 90%
    07:00 +7°C° 0 mm 0 mps 508 mmHg 89%
    08:00 +8°C° 0.1 mm 0 mps 509 mmHg 86%
    09:00 +11°C° 0.1 mm 1 mps 510 mmHg 83%
    10:00 +12°C° 0.1 mm 1 mps 511 mmHg 81%
    11:00 +12°C° 0.2 mm 1 mps 510 mmHg 82%
    12:00 +12°C° 0.2 mm 1 mps 510 mmHg 83%
    13:00 +12°C° 0.2 mm 1 mps 509 mmHg 84%
    14:00 +12°C° 0.3 mm 1 mps 509 mmHg 86%
    15:00 +11°C° 0.3 mm 1 mps 508 mmHg 88%
    16:00 +11°C° 0.3 mm 1 mps 508 mmHg 91%
    17:00 +10°C° 0.2 mm 1 mps 507 mmHg 93%
    18:00 +9°C° 0.2 mm 1 mps 507 mmHg 95%
    19:00 +7°C° 0.2 mm 0 mps 507 mmHg 98%
    20:00 +6°C° 0.1 mm 0 mps 507 mmHg 96%
    21:00 +7°C° 0.1 mm 1 mps 507 mmHg 95%
    22:00 +7°C° 0.1 mm 1 mps 507 mmHg 93%
    23:00 +6°C° 0.1 mm 1 mps 507 mmHg 93%

    14 December, Saturday

    Time Temperature Precipitation Wind Pressure Humidity
    00:00 +5°C° 0.1 mm 0 mps 506 mmHg 93%
    01:00 +5°C° 0.1 mm 0 mps 506 mmHg 93%
    02:00 +5°C° 0 mm 0 mps 506 mmHg 92%
    03:00 +4°C° 0 mm 0 mps 506 mmHg 92%
    04:00 +5°C° 0 mm 1 mps 506 mmHg 91%
    05:00 +5°C° 0 mm 0 mps 507 mmHg 89%
    06:00 +6°C° 0 mm 0 mps 508 mmHg 86%
    07:00 +7°C° 0 mm 0 mps 509 mmHg 84%
    08:00 +8°C° 0 mm 0 mps 510 mmHg 80%
    09:00 +11°C° 0 mm 1 mps 511 mmHg 77%
    10:00 +12°C° 0 mm 1 mps 512 mmHg 73%
    11:00 +12°C° 0.3 mm 1 mps 511 mmHg 75%
    12:00 +12°C° 0.3 mm 1 mps 510 mmHg 78%
    13:00 +13°C° 0.3 mm 1 mps 510 mmHg 80%
    14:00 +12°C° 0.4 mm 1 mps 509 mmHg 82%
    15:00 +12°C° 0.4 mm 1 mps 509 mmHg 84%
    16:00 +11°C° 0.4 mm 1 mps 508 mmHg 87%
    17:00 +10°C° 0.2 mm 1 mps 508 mmHg 90%
    18:00 +8°C° 0.2 mm 0 mps 508 mmHg 93%
    19:00 +8°C° 0.2 mm 0 mps 508 mmHg 96%
    20:00 +7°C° 0.1 mm 0 mps 508 mmHg 95%
    21:00 +7°C° 0.1 mm 0 mps 508 mmHg 94%
    22:00 +7°C° 0.1 mm 1 mps 509 mmHg 93%
    23:00 +7°C° 0 mm 1 mps 508 mmHg 92%

    15 December, Sunday

    Time Temperature Precipitation Wind Pressure Humidity
    00:00 +7°C° 0 mm 1 mps 508 mmHg 91%
    01:00 +6°C° 0 mm 0 mps 507 mmHg 90%
    02:00 +5°C° 0 mm 0 mps 507 mmHg 90%
    03:00 +5°C° 0 mm 0 mps 507 mmHg 89%
    04:00 +5°C° 0 mm 0 mps 506 mmHg 88%
    05:00 +7°C° 0 mm 1 mps 507 mmHg 85%
    06:00 +7°C° 0 mm 1 mps 508 mmHg 83%
    07:00 +8°C° 0 mm 1 mps 509 mmHg 80%
    08:00 +10°C° 0 mm 1 mps 510 mmHg 76%
    09:00 +12°C° 0 mm 1 mps 511 mmHg 71%
    10:00 +13°C° 0 mm 2 mps 513 mmHg 67%
    11:00 +13°C° 0.3 mm 1 mps 512 mmHg 71%
    12:00 +13°C° 0.3 mm 1 mps 511 mmHg 75%
    13:00 +13°C° 0.3 mm 1 mps 511 mmHg 80%
    14:00 +12°C° 0.9 mm 1 mps 510 mmHg 83%
    15:00 +12°C° 0.9 mm 1 mps 509 mmHg 87%
    16:00 +11°C° 0.9 mm 1 mps 509 mmHg 91%
    17:00 +10°C° 0.4 mm 1 mps 508 mmHg 92%
    18:00 +9°C° 0.4 mm 1 mps 508 mmHg 93%
    19:00 +8°C° 0.4 mm 1 mps 508 mmHg 94%
    20:00 +8°C° 0 mm 1 mps 508 mmHg 93%
    21:00 +7°C° 0 mm 1 mps 508 mmHg 92%
    22:00 +6°C° 0 mm 1 mps 508 mmHg 90%
    23:00 +6°C° 0 mm 1 mps 508 mmHg 90%
    Show more